Location: Jonen
(52.7189°N, 6.0177°E)
Time: 15:25:38
(UTC+00:00)

BlueWalker 3 - Visible Passes

Search period start: 13 May 2026 00:00
Search period end: 23 May 2026 00:00
Orbit: 447 x 458 km, 53.2° (Epoch: 13 May)

Date Brightness Start Highest point End Pass type
(mag) Time Alt. Az. Time Alt. Az. Time Alt. Az.
13 May 2.5 00:52:58 33° SSE 00:53:06 33° SSE 00:56:19 10° E visible
13 May 1.7 02:26:43 10° WSW 02:30:16 87° S 02:33:49 10° E visible
14 May 3.1 00:17:09 25° ESE 00:17:09 25° ESE 00:19:27 10° E visible
14 May 1.6 01:50:46 16° WSW 01:53:29 80° SSE 01:57:03 10° E visible
14 May 3.7 23:41:17 17° ESE 23:41:17 17° ESE 23:42:32 10° E visible
15 May 1.6 01:14:54 26° WSW 01:16:43 71° SSE 01:20:15 10° ENE visible
15 May 1.8 02:50:35 10° W 02:54:08 81° N 02:57:42 10° E visible
15 May 4.2 23:05:21 11° E 23:05:21 11° E 23:05:33 10° E visible
16 May 1.6 00:38:58 42° SW 00:39:56 62° SSE 00:43:27 10° ENE visible
16 May 1.8 02:13:47 10° W 02:17:20 80° N 02:20:54 10° E visible
17 May 1.7 00:02:55 52° S 00:03:10 53° SSE 00:06:38 10° E visible
17 May 1.7 01:36:57 10° W 01:40:31 81° N 01:44:04 10° E visible
17 May 2.1 23:26:45 43° SE 23:26:45 43° SE 23:29:48 10° E visible
18 May 1.7 01:00:19 11° W 01:03:42 84° N 01:07:15 10° E visible
18 May 1.6 02:37:36 10° W 02:41:09 82° SSW 02:44:42 10° ESE visible
18 May 2.5 22:50:20 34° ESE 22:50:20 34° ESE 22:52:58 10° E visible
19 May 1.6 00:23:54 14° W 00:26:52 88° NNW 00:30:26 10° E visible
19 May 1.7 02:00:46 10° W 02:04:20 89° SSW 02:07:54 10° ESE visible
19 May 2.6 22:13:24 30° SE 22:13:24 30° SE 22:16:05 10° E visible
19 May 1.6 23:46:54 13° WSW 23:50:03 86° SSE 23:53:37 10° E visible
20 May 1.7 01:23:57 10° W 01:27:31 86° N 01:31:04 10° E visible
20 May 2.7 21:33:09 10° SSW 21:36:09 26° SE 21:39:10 10° E visible
20 May 1.5 23:09:41 10° WSW 23:13:14 78° SSE 23:16:47 10° ENE visible
21 May 1.7 00:47:07 10° W 00:50:40 82° N 00:54:14 10° E visible
21 May 1.9 02:24:34 10° W 02:27:59 49° SSW 02:31:26 10° SE visible
21 May 2.9 20:56:40 10° SSW 20:59:26 21° SE 21:02:11 10° E visible
21 May 1.6 22:32:52 10° WSW 22:36:24 69° SSE 22:39:56 10° ENE visible
22 May 1.7 00:10:16 10° W 00:13:50 80° N 00:17:23 10° E visible
22 May 1.7 01:47:42 10° WNW 01:51:12 58° SSW 01:54:41 10° ESE visible
22 May 3.2 20:20:17 10° S 20:22:43 17° SE 20:25:08 10° E visible
22 May 1.6 21:56:06 10° WSW 21:59:35 60° SSE 22:03:06 10° ENE visible
22 May 1.7 23:33:25 10° W 23:36:59 80° N 23:40:32 10° E visible
